Waarnemingen

Advertentie
Mijn weer
Milford-Haven, Groot Brittannië (3604): temperatuur & dauwpunt: 15.08.2018 03:00:00 - 21.08.2018 03:00:00 (BST)Milford-Haven, Groot Brittannië (3604): temperatuur -20cm & temperatuur -100cm: 15.08.2018 03:00:00 - 21.08.2018 03:00:00 (BST)Milford-Haven, Groot Brittannië (3604): windsnelheid & windstoten: 15.08.2018 03:00:00 - 21.08.2018 03:00:00 (BST)Milford-Haven, Groot Brittannië (3604): windrichting: 15.08.2018 03:00:00 - 21.08.2018 03:00:00 (BST)Milford-Haven, Groot Brittannië (3604): luchtdruk: 15.08.2018 03:00:00 - 21.08.2018 03:00:00 (BST)Milford-Haven, Groot Brittannië (3604): zicht: 15.08.2018 03:00:00 - 21.08.2018 03:00:00 (BST)Milford-Haven, Groot Brittannië (3604): neerslag: 15.08.2018 03:00:00 - 21.08.2018 03:00:00 (BST)
Datum & Tijd tt [°C] td [°C] tt -20cm [°C] tt -100cm [°C] ff [km/u] ff [kn] fx [km/u] fx [kn] dd ppp [hPa] vv [km] rr [mm]
21.08.2018 03:00:00 - - - - - - - - - - - -
21.08.2018 02:00:00 15,7 14,8 - - 5 3 - - ZW 1020,2 30 0,0
21.08.2018 01:00:00 15,6 14,6 - - 8 4 - - W 1020,3 35 0,0
21.08.2018 00:00:00 15,6 14,7 - - 8 4 - - WZW 1020,2 30 0,0
20.08.2018 23:00:00 15,7 14,8 - - 9 5 - - W 1020,3 28 0,0
20.08.2018 22:00:00 15,4 14,3 - - 9 5 - - W 1020,2 50 0,0
20.08.2018 21:00:00 15,5 14,2 - - 15 8 - - W 1020,0 40 0,0
20.08.2018 20:00:00 15,7 14,4 - - 18 10 - - W 1019,9 40 0,0
20.08.2018 19:00:00 16,2 14,4 - - 21 11 - - W 1019,7 50 0,0
20.08.2018 18:00:00 16,9 15,5 - - 15 8 - - WZW 1019,8 50 0,0
20.08.2018 17:00:00 17,3 15,6 - - 15 8 - - WZW 1019,9 18 0,0
20.08.2018 16:00:00 18,2 16,1 - - 11 6 - - WZW 1020,3 35 0,0
20.08.2018 15:00:00 18,1 16,8 - - 15 8 - - WZW 1020,4 50 0,0
20.08.2018 14:00:00 17,5 16,3 - - 16 9 - - W 1020,7 6 0,0
20.08.2018 13:00:00 18,4 17,2 - - 16 9 - - W 1020,6 50 0,0
20.08.2018 12:00:00 18,6 18,2 - - 9 5 - - WZW 1020,5 25 0,0
20.08.2018 11:00:00 17,7 17,2 - - 11 6 - - WZW 1020,8 21 0,0
20.08.2018 10:00:00 17,6 17,3 18,2 18,0 15 8 - - W 1020,6 17 0,0
20.08.2018 09:00:00 17,0 16,8 - - 18 10 - - W 1020,4 12 0,0
20.08.2018 08:00:00 16,9 16,7 - - 15 8 - - WNW 1020,1 12 0,2
20.08.2018 07:00:00 16,6 16,5 - - 21 11 - - W 1019,7 2,7 0,4
20.08.2018 06:00:00 16,6 16,4 - - 16 9 - - W 1019,5 4,3 0,6
20.08.2018 05:00:00 16,6 16,4 - - 16 9 - - W 1019,5 4,2 0,0
20.08.2018 04:00:00 16,5 16,3 - - 13 7 - - WZW 1019,9 0,1 0,0
20.08.2018 03:00:00 16,8 16,6 - - 16 9 - - W 1020,1 0,3 0,0
20.08.2018 02:00:00 16,9 16,6 - - 8 4 - - WZW 1020,3 2,2 0,6
20.08.2018 01:00:00 16,6 16,3 - - 2 1 - - ZW 1020,7 1,8 0,0
20.08.2018 00:00:00 16,6 16,1 - - 5 3 - - WZW 1020,8 0,4 0,0
19.08.2018 23:00:00 16,8 16,3 - - 15 8 - - W 1020,6 12 0,0
19.08.2018 22:00:00 16,8 16,2 - - 8 4 - - W 1020,4 16 0,0
19.08.2018 21:00:00 16,7 16,3 - - 5 3 - - WZW 1020,2 10 0,0
19.08.2018 20:00:00 16,6 16,0 - - 5 3 - - WZW 1019,9 0,6 0,0
19.08.2018 19:00:00 17,0 15,9 - - 9 5 - - WZW 1019,8 1,6 0,0
19.08.2018 18:00:00 17,6 16,0 - - 8 4 - - W 1019,8 13 0,0
19.08.2018 17:00:00 17,8 16,1 - - 15 8 - - WZW 1019,6 16 0,0
19.08.2018 16:00:00 18,5 16,3 - - 15 8 - - W 1019,4 25 0,2
19.08.2018 15:00:00 17,9 16,3 - - 22 12 - - W 1019,2 23 0,0
19.08.2018 14:00:00 17,5 16,0 - - 22 12 - - W 1019,0 25 0,0
19.08.2018 13:00:00 17,1 15,7 - - 24 13 - - W 1018,8 19 0,0
19.08.2018 12:00:00 17,1 16,0 - - 22 12 - - W 1018,6 18 0,0
19.08.2018 11:00:00 16,5 15,8 - - 22 12 - - W 1018,2 19 0,0
19.08.2018 10:00:00 16,1 15,7 17,9 18,0 24 13 - - W 1017,8 12 0,0
19.08.2018 09:00:00 15,9 15,5 - - 29 16 48 26 W 1017,5 7 0,0
19.08.2018 08:00:00 16,2 15,8 - - 31 17 54 29 W 1016,6 6 0,0
19.08.2018 07:00:00 16,5 16,1 - - 34 18 54 29 W 1016,2 7 0,2
19.08.2018 06:00:00 16,8 16,4 - - 29 16 54 29 W 1016,0 7 0,0
19.08.2018 05:00:00 17,1 16,8 - - 26 14 46 25 WZW 1016,1 10 1,2
19.08.2018 04:00:00 17,1 16,8 - - 22 12 50 27 ZW 1016,7 1,5 0,4
19.08.2018 03:00:00 17,0 16,7 - - 34 18 52 28 ZZW 1016,7 2,5 0,0
19.08.2018 02:00:00 16,7 16,2 - - 28 15 48 26 ZW 1017,5 2,4 0,0
19.08.2018 01:00:00 16,9 16,5 - - 29 16 46 25 ZZW 1018,1 19 0,2
19.08.2018 00:00:00 16,8 16,6 - - 31 17 46 25 ZZW 1018,2 9 0,0
18.08.2018 23:00:00 16,8 16,6 - - 31 17 - - ZZW 1018,7 12 0,0
18.08.2018 22:00:00 16,8 16,6 - - 26 14 - - ZW 1019,2 5 0,0
18.08.2018 21:00:00 17,1 16,8 - - 18 10 - - ZW 1019,6 4,4 0,2
18.08.2018 20:00:00 17,2 16,9 - - 16 9 - - ZW 1019,6 1,8 0,0
18.08.2018 19:00:00 17,3 17,0 - - 15 8 - - ZW 1019,5 1,6 0,0
18.08.2018 18:00:00 17,4 17,0 - - 18 10 - - WZW 1019,7 7 0,2
18.08.2018 17:00:00 17,5 16,9 - - 15 8 - - ZW 1019,9 1,5 0,0
18.08.2018 16:00:00 17,5 16,9 - - 16 9 - - WZW 1020,1 4,3 0,0
18.08.2018 15:00:00 17,5 16,8 - - 16 9 - - ZW 1020,3 17 0,0
18.08.2018 14:00:00 17,3 16,7 - - 18 10 - - ZW 1020,5 13 0,0
18.08.2018 13:00:00 16,9 16,5 - - 16 9 - - ZW 1020,6 3,4 0,0
18.08.2018 12:00:00 16,7 16,3 - - 21 11 - - WZW 1020,7 3,8 0,2
18.08.2018 11:00:00 16,7 16,3 - - 21 11 - - WZW 1020,8 2,1 0,4
18.08.2018 10:00:00 16,7 15,8 17,7 18,2 21 11 - - W 1020,4 5 0,0
18.08.2018 09:00:00 16,6 15,9 - - 21 11 - - W 1020,2 13 0,0
18.08.2018 08:00:00 16,6 15,5 - - 16 9 - - WZW 1020,1 16 0,0
18.08.2018 07:00:00 16,4 15,1 - - 21 11 - - W 1020,0 17 0,0
18.08.2018 06:00:00 16,4 15,2 - - 22 12 - - W 1019,6 16 0,0
18.08.2018 05:00:00 16,3 15,1 - - 26 14 - - W 1019,3 16 0,0
18.08.2018 04:00:00 16,4 15,0 - - 24 13 - - W 1019,6 16 0,0
18.08.2018 03:00:00 16,4 15,0 - - 21 11 - - WZW 1019,8 17 0,0
18.08.2018 02:00:00 16,3 15,0 - - 22 12 - - WZW 1020,0 15 0,0
18.08.2018 01:00:00 16,4 15,0 - - 24 13 - - WZW 1020,2 14 0,0
18.08.2018 00:00:00 16,3 15,0 - - 26 14 - - W 1020,3 16 0,0
17.08.2018 23:00:00 16,2 14,9 - - 24 13 - - W 1020,4 21 0,0
17.08.2018 22:00:00 16,3 14,8 - - 24 13 - - W 1020,2 18 0,0
17.08.2018 21:00:00 16,3 14,8 - - 24 13 - - WZW 1020,0 16 0,0
17.08.2018 20:00:00 16,4 14,7 - - 21 11 - - WZW 1019,8 17 0,0
17.08.2018 19:00:00 16,5 14,5 - - 24 13 - - WZW 1019,9 17 0,0
17.08.2018 18:00:00 16,6 13,7 - - 28 15 - - W 1019,9 22 0,0
17.08.2018 17:00:00 16,5 13,7 - - 22 12 - - WZW 1020,0 21 0,0
17.08.2018 16:00:00 16,7 13,4 - - 22 12 - - WZW 1020,2 27 0,0
17.08.2018 15:00:00 16,6 13,2 - - 21 11 - - WZW 1020,6 24 0,0
17.08.2018 14:00:00 16,2 12,3 - - 22 12 - - WZW 1020,8 25 0,0
17.08.2018 13:00:00 16,2 12,2 - - 22 12 - - W 1020,9 28 0,0
17.08.2018 12:00:00 15,9 11,5 - - 26 14 - - W 1021,0 30 0,0
17.08.2018 11:00:00 16,2 11,8 - - 22 12 - - W 1021,1 40 0,0
17.08.2018 10:00:00 17,0 11,5 18,0 18,2 21 11 - - W 1020,6 45 0,0
17.08.2018 09:00:00 16,1 11,6 - - 18 10 - - W 1020,2 40 0,0
17.08.2018 08:00:00 15,1 11,6 - - 11 6 - - W 1019,8 35 0,0
17.08.2018 07:00:00 13,1 11,4 - - 13 7 - - WNW 1019,7 35 0,0
17.08.2018 06:00:00 12,4 11,1 - - 9 5 - - WNW 1019,1 35 0,0
17.08.2018 05:00:00 12,6 11,6 - - 8 4 - - WNW 1018,7 35 0,0
17.08.2018 04:00:00 12,0 11,1 - - 9 5 - - WNW 1018,7 35 0,0
17.08.2018 03:00:00 12,1 10,7 - - 11 6 - - NW 1018,6 30 0,0
17.08.2018 02:00:00 12,6 10,4 - - 16 9 - - NW 1018,4 40 0,0
17.08.2018 01:00:00 12,8 10,8 - - 16 9 - - WNW 1018,2 35 0,0
17.08.2018 00:00:00 13,4 10,8 - - 15 8 - - WNW 1017,9 35 0,0
16.08.2018 23:00:00 14,1 11,8 - - 15 8 - - WNW 1017,5 30 0,0
16.08.2018 22:00:00 14,8 12,8 - - 15 8 - - W 1017,1 29 0,0
16.08.2018 21:00:00 15,2 12,9 - - 16 9 - - W 1016,4 29 0,0
16.08.2018 20:00:00 16,1 12,9 - - 22 12 - - W 1015,8 30 0,0
16.08.2018 19:00:00 16,5 12,9 - - 21 11 - - W 1015,4 35 0,0
16.08.2018 18:00:00 17,1 13,0 - - 21 11 - - W 1015,3 30 0,0
16.08.2018 17:00:00 17,8 12,6 - - 22 12 - - W 1014,8 40 0,0
16.08.2018 16:00:00 17,6 12,1 - - 26 14 - - W 1014,6 40 0,0
16.08.2018 15:00:00 18,0 12,2 - - 26 14 - - W 1014,2 35 0,0
16.08.2018 14:00:00 17,2 11,5 - - 22 12 - - W 1013,9 40 0,0
16.08.2018 13:00:00 18,0 11,9 - - 21 11 - - W 1013,6 45 0,0
16.08.2018 12:00:00 16,8 11,2 - - 22 12 - - W 1013,4 45 0,0
16.08.2018 11:00:00 17,1 11,8 - - 26 14 - - W 1013,1 45 0,0
16.08.2018 10:00:00 16,3 11,1 18,4 18,4 22 12 - - W 1012,9 40 0,0
16.08.2018 09:00:00 15,8 11,3 - - 18 10 - - W 1012,7 35 0,0
16.08.2018 08:00:00 14,1 11,5 - - 18 10 - - W 1012,3 28 0,0
16.08.2018 07:00:00 12,9 11,4 - - 13 7 - - WNW 1012,0 29 0,0
16.08.2018 06:00:00 12,7 11,2 - - 15 8 - - WNW 1011,8 30 0,0
16.08.2018 05:00:00 14,8 13,1 - - 26 14 - - W 1011,3 26 0,2
16.08.2018 04:00:00 15,3 14,7 - - 22 12 - - W 1011,4 19 1,0
16.08.2018 03:00:00 15,9 15,3 - - 21 11 - - WZW 1011,4 4,0 1,6
16.08.2018 02:00:00 16,4 15,9 - - 22 12 - - WZW 1011,6 19 0,2
16.08.2018 01:00:00 16,7 16,4 - - 16 9 - - WZW 1011,8 10 0,4
16.08.2018 00:00:00 16,7 16,4 - - 18 10 - - WZW 1012,0 18 1,4
15.08.2018 23:00:00 16,6 16,3 - - 22 12 - - WZW 1012,1 2,0 0,8
15.08.2018 22:00:00 17,2 16,9 - - 22 12 - - ZW 1012,9 15 0,4
15.08.2018 21:00:00 17,1 16,7 - - 21 11 - - ZW 1013,0 3,3 0,6
15.08.2018 20:00:00 17,3 16,5 - - 21 11 46 25 ZW 1013,3 2,7 0,0
15.08.2018 19:00:00 17,3 16,6 - - 22 12 46 25 ZW 1013,7 18 0,2
15.08.2018 18:00:00 17,5 17,0 - - 28 15 52 28 ZW 1014,0 13 0,2
15.08.2018 17:00:00 17,2 16,8 - - 29 16 52 28 ZW 1014,7 1,7 2,2
15.08.2018 16:00:00 17,6 16,6 - - 29 16 46 25 ZZW 1015,1 3,0 0,0
15.08.2018 15:00:00 18,4 16,5 - - 26 14 - - ZZW 1015,7 22 0,0
15.08.2018 14:00:00 18,4 16,6 - - 26 14 - - ZZW 1016,3 23 0,0
15.08.2018 13:00:00 19,4 16,7 - - 22 12 - - ZW 1016,5 27 0,0
15.08.2018 12:00:00 19,0 16,9 - - 21 11 - - ZW 1016,7 22 0,0
15.08.2018 11:00:00 17,9 16,4 - - 18 10 - - ZW 1016,9 17 0,0
15.08.2018 10:00:00 18,4 17,0 18,7 18,4 18 10 - - WZW 1017,0 20 0,0
15.08.2018 09:00:00 17,7 16,8 - - 21 11 - - WZW 1016,8 18 0,0
15.08.2018 08:00:00 17,2 16,8 - - 18 10 - - WZW 1016,8 15 0,2
15.08.2018 07:00:00 17,0 16,6 - - 16 9 - - ZW 1017,0 13 0,0
15.08.2018 06:00:00 16,8 16,4 - - 21 11 - - W 1017,0 16 0,0
15.08.2018 05:00:00 16,9 16,6 - - 22 12 - - WZW 1017,2 16 0,4
15.08.2018 04:00:00 16,8 16,4 - - 18 10 - - WZW 1017,4 1,7 0,2
15.08.2018 03:00:00 16,8 16,1 - - 16 9 - - WZW 1017,7 3,7 0,0

tt = temperatuur
td = dauwpunt
tt -20cm = temperatuur -20cm
tt -100cm = temperatuur -100cm
ff = windsnelheid
fx = windstoten
dd = windrichting
ppp = luchtdruk
vv = zicht
rr = neerslag

Weerstations in de omgeving